Regional Weather Roundup
Issued by NWS State College, PA

Home | Current Version | Previous Version | Text Only | Print | Product List | Glossary Off
Versions: 1 2 3 4 5 6 7 8 9 10 11 12 13 14 15 16 17 18 19 20 21 22 23 24 25 26 27 28 29 30 31 32 33 34 35 36 37 38 39 40 41 42 43 44 45 46 47 48 49 50

825
ASUS41 KCTP 280803
RWRCTP

REGIONAL WEATHER ROUNDUP
NATIONAL WEATHER SERVICE STATE COLLEGE PA
400 AM EDT WED JUN 28 2017

Note: "fair" indicates few or no clouds below 12,000 feet with no
significant weather and/or obstructions to visibility.

* = STATION THAT DOES NOT REPORT PRECIPITATION /E.G. RAIN...SNOW...ETC/
    THUNDER OR FOG.

PAZ002>004-007>009-013>016-020>023-029>032-280900-
WESTERN PENNSYLVANIA

CITY           SKY/WX    TMP DP  RH WIND       PRES   REMARKS
ERIE           MOCLDY    60  44  55 S10       30.07S
MEADVILLE      CLOUDY    54  46  74 S7        30.10F
FRANKLIN*      PTCLDY    48  41  76 SW6       30.12S
NEW CASTLE     FAIR      46  45  96 SW5       30.12S
BEAVER COUNTY  NOT AVBL
BUTLER*        CLEAR     48  45  87 CALM      30.13S
PITTSBURGH INT CLEAR     51  48  89 CALM      30.13S
PITTSBURGH     CLEAR     52  46  80 S5        30.13S
INDIANA*       CLEAR     48  48 100 CALM      30.17R
LATROBE        CLEAR     48  48 100 CALM      30.15S
WASHINGTON CO* CLEAR     46  45  93 CALM      30.16S
$$

PAZ004>006-010>012-017>019-024>028-033>037-041-042-045-046-049>053-280900-
CENTRAL PENNSYLVANIA

CITY           SKY/WX    TMP DP  RH WIND       PRES   REMARKS
BRADFORD       CLEAR     41  40  96 CALM      30.11S
DUBOIS         CLEAR     47  44  90 SW3       30.12S
CLEARFIELD     CLEAR     47  47 100 SW3       30.13S
JOHNSTOWN      CLEAR     49  46  90 SW6       30.15R
ALTOONA        CLEAR     50  47  89 CALM      30.14S
STATE COLLEGE  CLEAR     49  47  90 SW3       30.13R
WILLIAMSPORT   CLEAR     52  50  93 CALM      30.10R
SELINSGROVE    CLEAR     50  49  96 CALM      30.12R
FT INDIANTOWN  CLEAR     51  50  97 CALM      30.11R
CAPITAL CITY   CLEAR     55  48  77 CALM      30.11S
HARRISBURG     CLEAR     56  52  86 N3        30.11R
YORK           CLEAR     50  49  96 CALM      30.12R
$$

PAZ038>040-043-044-047-048-054-055-060>062-067>071-280900-
EASTERN PENNSYLVANIA

CITY           SKY/WX    TMP DP  RH WIND       PRES   REMARKS
SCRANTON       CLEAR     55  51  86 SW5       30.09R
MOUNT POCONO   CLEAR     49  48  97 NW7       30.09S
ALLENTOWN      CLEAR     54  48  80 W7        30.09R
QUAKERTOWN*    SUNNY     55  50  82 CALM      30.10R
READING        CLEAR     58  52  80 W6        30.10R
LANCASTER      CLEAR     57  51  80 W3        30.11R
COATESVILLE    SUNNY     54  50  87 NW7       30.12R
POTTSTOWN      CLEAR     53  51  93 CALM      30.11R
BLUE BELL      CLEAR     54  52  94 CALM      30.11R
DOYLESTOWN     CLEAR     54  50  86 CALM      30.08R
WILLOW GROVE   NOT AVBL
NORTH PHILA    CLEAR     60  50  69 W6        30.10R
PHILADELPHIA   CLEAR     63  49  60 W10       30.10R
$$




USA.gov is the U.S. government's official web portal to all federal, state and local government web resources and services.